Jamestown, NY

5:14 PM EST on December 08, 2016 (GMT -0500)
Chautauqua County-Jamestown

Weather History for KJHW - November, 2012

Change the Weather History Date:

Monday, November 12, 2012

  Actual Average Record
Temperature  
Mean Temperature 50 °F -  
Max Temperature 66 °F 44 °F 66 °F (2012)
Min Temperature 33 °F 31 °F 17 °F (1961)
Degree Days  
Heating Degree Days 16    
Moisture  
Dew Point 40 °F    
Average Humidity 62    
Maximum Humidity 93    
Minimum Humidity 44    
Precipitation  
Precipitation 0.37 in - - ()
Sea Level Pressure  
Sea Level Pressure 30.11 in    
Wind  
Wind Speed 13 mph (SSW)    
Max Wind Speed 23 mph    
Max Gust Speed 36 mph    
Visibility 9 miles    
Events      
Averages and records for this station are not official NWS values.
T = Trace of Precipitation, MM = Missing Value Source: NWS Daily Summary

Daily Weather History Graph

Daily Weather History Graph

Search for Another Location

Airport or City:

Trip Planner

Search our weather history database for the weather conditions in past years. The results will help you decide how hot, cold, wet, or windy it might be!

Date:

Astronomy

Nov. 12, 2012 Rise Set
Actual Time 7:04 AM EST 4:57 PM EST
Civil Twilight 6:34 AM EST 5:27 PM EST
Nautical Twilight 6:00 AM EST 6:01 PM EST
Astronomical Twilight 5:27 AM EST 6:34 PM EST
Moon 5:26 AM EST (11/12) 4:02 PM EST (11/12)
Length of Visible Light 10h 53m
Length of Day
9h 53m
Waning Crescent, 2% of the Moon is Illuminated
Nov 12
Waning Crescent
Nov 13
New
Nov 20
First Quarter
Nov 28
Full
Dec 6
Last Quarter

Hourly Weather History & Observations

Time (EST) Temp. Windchill Dew Point Humidity Pressure Visibility Wind Dir Wind Speed Gust Speed Precip Events Conditions
12:15 AM 55.4 °F - 35.6 °F 47% 30.18 in 10.0 mi South 10.4 mph - N/A   Clear
12:35 AM 55.4 °F - 35.6 °F 47% 30.18 in 10.0 mi South 11.5 mph 18.4 mph N/A   Clear
12:55 AM 55.4 °F - 35.6 °F 47% 30.17 in 10.0 mi South 13.8 mph 18.4 mph N/A   Clear
1:15 AM 55.4 °F - 35.6 °F 47% 30.17 in 10.0 mi South 10.4 mph - N/A   Clear
1:55 AM 55.4 °F - 33.8 °F 44% 30.17 in 10.0 mi South 11.5 mph - N/A   Clear
2:15 AM 55.4 °F - 35.6 °F 47% 30.17 in 10.0 mi South 15.0 mph 20.7 mph N/A   Clear
2:35 AM 55.4 °F - 35.6 °F 47% 30.17 in 10.0 mi South 12.7 mph 18.4 mph N/A   Clear
2:55 AM 57.2 °F - 35.6 °F 44% 30.17 in 10.0 mi South 12.7 mph - N/A   Clear
3:15 AM 57.2 °F - 35.6 °F 44% 30.17 in 10.0 mi South 12.7 mph 17.3 mph N/A   Clear
3:35 AM 57.2 °F - 35.6 °F 44% 30.17 in 10.0 mi South 10.4 mph 17.3 mph N/A   Clear
3:55 AM 57.2 °F - 37.4 °F 48% 30.17 in 10.0 mi South 11.5 mph 17.3 mph N/A   Partly Cloudy
4:15 AM 57.2 °F - 37.4 °F 48% 30.17 in 10.0 mi South 12.7 mph 20.7 mph N/A   Partly Cloudy
4:35 AM 57.2 °F - 37.4 °F 48% 30.17 in 10.0 mi South 13.8 mph 25.3 mph N/A   Clear
4:55 AM 57.2 °F - 39.2 °F 51% 30.17 in 10.0 mi South 15.0 mph 25.3 mph N/A   Clear
5:15 AM 57.2 °F - 39.2 °F 51% 30.17 in 10.0 mi South 13.8 mph 24.2 mph N/A   Clear
5:35 AM 57.2 °F - 39.2 °F 51% 30.17 in 10.0 mi South 12.7 mph 19.6 mph N/A   Clear
5:55 AM 57.2 °F - 39.2 °F 51% 30.16 in 10.0 mi South 12.7 mph 20.7 mph N/A   Clear
6:15 AM 57.2 °F - 41.0 °F 55% 30.16 in 10.0 mi South 11.5 mph 20.7 mph N/A   Clear
6:35 AM 57.2 °F - 39.2 °F 51% 30.15 in 10.0 mi South 16.1 mph 20.7 mph N/A   Clear
6:55 AM 57.2 °F - 39.2 °F 51% 30.15 in 10.0 mi South 11.5 mph 19.6 mph N/A   Clear
7:15 AM 55.4 °F - 39.2 °F 54% 30.14 in 10.0 mi South 12.7 mph 19.6 mph N/A   Clear
7:35 AM 55.4 °F - 41.0 °F 58% 30.15 in 10.0 mi South 12.7 mph 18.4 mph N/A   Clear
7:55 AM 55.4 °F - 41.0 °F 58% 30.15 in 10.0 mi South 12.7 mph 18.4 mph N/A   Clear
8:15 AM 55.4 °F - 42.8 °F 63% 30.14 in 10.0 mi South 13.8 mph 19.6 mph N/A   Clear
8:35 AM 55.4 °F - 42.8 °F 63% 30.14 in 10.0 mi South 15.0 mph 21.9 mph N/A   Clear
8:55 AM 57.2 °F - 42.8 °F 59% 30.13 in 10.0 mi South 11.5 mph 19.6 mph N/A   Clear
9:15 AM 59.0 °F - 42.8 °F 55% 30.13 in 10.0 mi South 12.7 mph 24.2 mph N/A   Clear
9:35 AM 60.8 °F - 44.6 °F 55% 30.12 in 10.0 mi South 16.1 mph 24.2 mph N/A   Clear
9:55 AM 60.8 °F - 44.6 °F 55% 30.11 in 10.0 mi South 15.0 mph 24.2 mph N/A   Clear
10:15 AM 62.6 °F - 44.6 °F 52% 30.11 in 10.0 mi South 13.8 mph 25.3 mph N/A   Partly Cloudy
10:55 AM 62.6 °F - 46.4 °F 55% 30.10 in 10.0 mi South 19.6 mph 29.9 mph N/A   Mostly Cloudy
11:15 AM 64.4 °F - 46.4 °F 52% 30.08 in 10.0 mi South 19.6 mph 29.9 mph N/A   Mostly Cloudy
11:35 AM 64.4 °F - 46.4 °F 52% 30.07 in 10.0 mi South 16.1 mph 24.2 mph N/A   Overcast
11:55 AM 64.4 °F - 46.4 °F 52% 30.06 in 10.0 mi South 20.7 mph 35.7 mph N/A   Mostly Cloudy
12:15 PM 66.2 °F - 46.4 °F 49% 30.04 in 10.0 mi South 23.0 mph 34.5 mph N/A   Overcast
12:35 PM 64.4 °F - 46.4 °F 52% 30.03 in 10.0 mi South 20.7 mph 29.9 mph N/A   Overcast
12:55 PM 66.2 °F - 46.4 °F 49% 30.00 in 10.0 mi South 21.9 mph 31.1 mph N/A   Mostly Cloudy
1:15 PM 64.4 °F - 46.4 °F 52% 30.00 in 10.0 mi South 18.4 mph 29.9 mph N/A   Mostly Cloudy
1:35 PM 64.4 °F - 46.4 °F 52% 29.99 in 10.0 mi South 19.6 mph 29.9 mph N/A   Overcast
1:55 PM 64.4 °F - 46.4 °F 52% 29.98 in 10.0 mi South 15.0 mph 28.8 mph N/A   Overcast
2:15 PM 64.4 °F - 46.4 °F 52% 29.96 in 10.0 mi South 15.0 mph 27.6 mph N/A   Overcast
2:35 PM 64.4 °F - 46.4 °F 52% 29.95 in 10.0 mi South 17.3 mph 29.9 mph N/A   Overcast
2:55 PM 64.4 °F - 46.4 °F 52% 29.95 in 10.0 mi South 16.1 mph 28.8 mph N/A   Overcast
3:15 PM 64.4 °F - 46.4 °F 52% 29.94 in 10.0 mi South 23.0 mph 31.1 mph N/A   Overcast
3:35 PM 64.4 °F - 44.6 °F 49% 29.93 in 10.0 mi South 15.0 mph 24.2 mph N/A   Overcast
3:55 PM 64.4 °F - 44.6 °F 49% 29.94 in 10.0 mi South 13.8 mph 24.2 mph N/A   Overcast
4:15 PM 64.4 °F - 44.6 °F 49% 29.95 in 10.0 mi SW 10.4 mph 18.4 mph N/A   Overcast
4:35 PM 50.0 °F - 44.6 °F 82% 29.98 in 10.0 mi WNW 17.3 mph 25.3 mph 0.01 in   Overcast
4:55 PM 48.2 °F - 44.6 °F 87% 29.99 in 8.0 mi WNW 16.1 mph 23.0 mph 0.05 in   Overcast
5:35 PM 46.4 °F 41.1 °F 44.6 °F 93% 30.01 in 10.0 mi WNW 11.5 mph 18.4 mph 0.08 in   Overcast
5:55 PM 46.4 °F 40.1 °F 42.8 °F 87% 30.04 in 10.0 mi West 15.0 mph 26.5 mph 0.14 in   Overcast
6:15 PM 44.6 °F 39.2 °F 41.0 °F 87% 30.05 in 8.0 mi West 10.4 mph 18.4 mph 0.03 in   Overcast
6:35 PM 42.8 °F 34.5 °F 39.2 °F 87% 30.07 in 6.0 mi West 18.4 mph 26.5 mph 0.06 in   Overcast
6:55 PM 42.8 °F 36.6 °F 37.4 °F 81% 30.08 in 7.0 mi West 11.5 mph 27.6 mph 0.08 in   Overcast
7:15 PM 41.0 °F 33.1 °F 37.4 °F 87% 30.12 in 7.0 mi West 15.0 mph 24.2 mph 0.02 in   Overcast
7:35 PM 39.2 °F 31.2 °F 35.6 °F 87% 30.11 in 7.0 mi West 13.8 mph 23.0 mph 0.05 in   Overcast
7:55 PM 39.2 °F 32.0 °F 35.6 °F 87% 30.12 in 7.0 mi West 11.5 mph 23.0 mph 0.07 in   Overcast
8:15 PM 39.2 °F 32.5 °F 35.6 °F 87% 30.13 in 10.0 mi WSW 10.4 mph - 0.01 in   Overcast
8:35 PM 37.4 °F 28.5 °F 33.8 °F 87% 30.15 in 10.0 mi WSW 15.0 mph 21.9 mph 0.01 in   Overcast
8:55 PM 37.4 °F 28.9 °F 33.8 °F 87% 30.16 in 10.0 mi WSW 13.8 mph 19.6 mph 0.01 in   Mostly Cloudy
9:15 PM 37.4 °F 29.3 °F 33.8 °F 87% 30.17 in 10.0 mi WSW 12.7 mph - N/A   Overcast
9:35 PM 35.6 °F 26.6 °F 32.0 °F 87% 30.17 in 10.0 mi WSW 13.8 mph - N/A   Overcast
9:55 PM 35.6 °F 27.1 °F 30.2 °F 81% 30.18 in 10.0 mi WSW 12.7 mph 20.7 mph N/A   Overcast
10:15 PM 33.8 °F 25.8 °F 30.2 °F 87% 30.21 in 2.5 mi SW 10.4 mph - 0.01 in   Overcast
10:35 PM 33.8 °F 29.6 °F 30.2 °F 87% 30.19 in 2.5 mi SW 4.6 mph - 0.02 in   Overcast
10:55 PM 33.8 °F 27.0 °F 30.2 °F 87% 30.20 in 3.0 mi SW 8.1 mph - 0.02 in   Overcast
11:15 PM 33.8 °F 27.7 °F 30.2 °F 87% 30.21 in 10.0 mi SW 6.9 mph - N/A   Overcast
11:35 PM 33.8 °F 25.8 °F 30.2 °F 87% 30.22 in 7.0 mi SW 10.4 mph - N/A   Overcast
11:55 PM 33.8 °F 25.8 °F 30.2 °F 87% 30.23 in 10.0 mi SW 10.4 mph 18.4 mph N/A   Mostly Cloudy